Urfa, Turkey

11:08 PM +03 on February 26, 2017 (GMT +0300)
Sanliurfa | | Change Station

Elev 2707 ft 37.45 °N, 38.90 °E | Updated 18 minutes ago

Clear
Clear
52 °F
Feels Like 52 °F
N
5
Wind Variable Wind from North

Today
High -- | Low -- °F
--% Chance of Precip.
Yesterday
High -- | Low -- °F
Precip. -- in
Pressure 30.15 in
Visibility -9999.0 miles
Clouds
Dew Point 32 °F
Humidity 47%
Rainfall 0.00 in
Snow Depth Not available.
7:00 AM 6:16 PM
New Moon, 0% visible
METAR LTCS 261950Z 36004KT CAVOK 11/00 Q1021 RMK RWY22 36002KT
Pressure 30.15 in
Visibility -9999.0 miles
Clouds
Dew Point 32 °F
Humidity 47%
Rainfall 0.00 in
Snow Depth Not available.
7:00 AM 6:16 PM
New Moon, 0% visible
METAR LTCS 261950Z 36004KT CAVOK 11/00 Q1021 RMK RWY22 36002KT

Get Your Daily Forecast Email!

Thanks for signing up!

Be on the lookout for a verification email in your inbox.

You'll start receiving the daily forecast at 8 AM.

×

10-Day Weather Forecast

×

Almanac

Astronomy

Feb. 26, 2017 Rise Set
Actual Time
Civil Twilight
Nautical Twilight
Astronomical Twilight
Moon
Length of Visible Light
Length of Day
Tomorrow will be .
, % of the Moon is Illuminated

Today's Extremes

Country Highs Country Lows

Community

WunderPhotos

Upload Photos

1,962,540 photos uploaded!

WunderBlog® & News

Nearby

Air Quality

  Air Quality AQ Index Pollutant
Not available.

Snow Depth

Station Depth Elevation

Earthquake Activity

City Distance Mag. Time & Date
Minimum magnitude displayed is 2.5.

Coastal Water Temperatures

Place Temperature

Stations

Nearby Weather Stations

Station Location Temp. Windchill Dew Point Humidity Wind Precip. Elev Updated Type